Regional Weather Roundup
Issued by NWS

Home | Current Version | Previous Version | Graphics & Text | Print | Product List | Glossary Off
Versions: 1 2 3 4 5 6 7 8 9 10 11 12 13 14 15 16 17 18 19 20 21 22 23 24 25 26 27 28 29 30 31 32 33 34 35 36 37 38 39 40 41 42 43 44 45 46 47 48 49 50

000
ASUS43 KTOP 282359
RWRKS

WEATHER ROUNDUP FOR KANSAS
NATIONAL WEATHER SERVICE GOODLAND KS
600 PM CST SUN DEC 28 2014

NOTE:  "FAIR" INDICATES FEW OR NO CLOUDS BELOW 12,000 FEET WITH NO
SIGNIFICANT WEATHER AND/OR OBSTRUCTIONS TO VISIBILITY.

KSZ001>006-013>018-027>032-041>047-290100-
NORTHWEST KANSAS

CITY           SKY/WX    TMP DP  RH WIND       PRES   REMARKS
GOODLAND       CLEAR     22  19  89 SE8       29.93R
6HR MIN TEMP:  22; 6HR MAX TEMP:  33;

HAYS           CLOUDY    34  18  51 E8        30.02S
HILL CITY      CLOUDY    31  25  78 E6        30.02R
6HR MIN TEMP:  29; 6HR MAX TEMP:  36;

RUSSELL        MOCLDY    33  23  66 SE8       30.03R
6HR MIN TEMP:  33; 6HR MAX TEMP:  42;

$$

KSZ061>065-074>080-084>089-290100-
SOUTHWEST KANSAS

CITY           SKY/WX    TMP DP  RH WIND       PRES   REMARKS
DODGE CITY     PTCLDY    31  16  54 SE7       29.97S
6HR MIN TEMP:  31; 6HR MAX TEMP:  42;

ELKHART          N/A     32  16  52 E7          N/A
GARDEN CITY    PTCLDY    29  17  61 S7        29.94S
6HR MIN TEMP:  29; 6HR MAX TEMP:  40;

GREAT BEND     MOCLDY    34  18  51 SE12      30.05S WCI  25
LIBERAL        CLEAR     34  14  44 S5        29.96S
$$

KSZ066>073-081>083-090>101-290100-
SOUTHEAST KANSAS

CITY           SKY/WX    TMP DP  RH WIND       PRES   REMARKS
CHANUTE        CLEAR     33  19  56 SE5       30.15R
6HR MIN TEMP:  32; 6HR MAX TEMP:  40;

COFFEYVILLE    CLEAR     34  23  64 SE5       30.16S
6HR MIN TEMP:  34; 6HR MAX TEMP:  40;

HUTCHINSON     PTCLDY    32  20  61 SE7       30.08R
6HR MIN TEMP:  32; 6HR MAX TEMP:  44;

MEDICINE LODGE   N/A     35  20  54 SE7       30.04F
NEWTON         CLEAR     30  16  55 SE7       30.10S
PARSONS        CLEAR     32  20  61 CALM      30.16S
6HR MIN TEMP:  32; 6HR MAX TEMP:  40;

WICHITA INTL   CLEAR     32  18  56 S6        30.09S
6HR MIN TEMP:  32; 6HR MAX TEMP:  42;

WICHITA JABRA  CLEAR     33  18  53 SE6       30.09S
6HR MIN TEMP:  31; 6HR MAX TEMP:  41;

WINFIELD       CLEAR     36  18  48 SE5       30.11S
6HR MIN TEMP:  36; 6HR MAX TEMP:  42;

$$

KSZ007>012-019>026-033>040-048>060-102>105-290100-
NORTHEAST KANSAS

CITY           SKY/WX    TMP DP  RH WIND       PRES   REMARKS
CONCORDIA      CLOUDY    33  22  63 SE3       30.08S
6HR MIN TEMP:  33; 6HR MAX TEMP:  40;

EMPORIA        CLEAR     32  17  54 SE6       30.12S
6HR MIN TEMP:  32; 6HR MAX TEMP:  39;

LAWRENCE       MOCLDY    29  21  72 S6        30.16R
6HR MIN TEMP:  29; 6HR MAX TEMP:  40;

MANHATTAN      PTCLDY    32  21  64 CALM      30.12R
6HR MIN TEMP:  30; 6HR MAX TEMP:  42;

OLATHE IND     MOCLDY    32  20  61 SE5       30.15S
6HR MIN TEMP:  32; 6HR MAX TEMP:  38; 6HR PCP: TRACE;

OLATHE EXE     MOCLDY    33  19  56 S3        30.14S
6HR MIN TEMP:  32; 6HR MAX TEMP:  38; 6HR PCP: TRACE;

SALINA         MOCLDY    36  22  56 SE8       30.09R
6HR MIN TEMP:  35; 6HR MAX TEMP:  43;

TOPEKA BILLARD PTCLDY    37  20  50 S3        30.15R
6HR MIN TEMP:  36; 6HR MAX TEMP:  42;

TOPEKA FORBES  PTCLDY    32  21  64 S5        30.14R
6HR MIN TEMP:  32; 6HR MAX TEMP:  41;

$$



USA.gov is the U.S. government's official web portal to all federal, state and local government web resources and services.